Date String (YYYY-MM-DD hh:mm:ss) UTC,Instrument flags,absolute air pressure of the measurement (hPa),sample flow rate (lpm),inlet stack bypass flow (lpm),air temperature of the measurement (°C),ambient temperature measured by the external sensor (°C),aerosol sample conditioner tube jacket temperature (°C),OPC LED temperature (°C),internal box temperature (°C),relative humidity of the measurement (%),span deviation,mass concentration of particles derived from Lorenz-Mie calculation of OPC scattering (μg/m³),mass concentration of particles derived from Lorenz-Mie calculation of OPC scattering (μg/m³),mass concentration of particles derived from Lorenz-Mie calculation of OPC scattering (μg/m³)
DateTimeUTC,F1_M11,P_M11,Q1_M11,Q2_M11,T1_M11,T2_M11,T3_M11,T4_M11,T5_M11,U1_M11,ZSPAN_M11,X2_M11,X0_M11,X1_M11
2024-03-26 10:00:00,SystemResetWarning,0819.3,5.00,000.00,018.6,018.8,000.0,027.4,021.0,13.9,0000.0,0009.05,0014.22,0008.73
2024-03-26 10:01:00,SystemResetWarning,0819.3,4.98,000.00,018.8,019.1,000.0,027.3,021.1,13.7,0000.0,0009.03,0014.23,0008.71
2024-03-26 10:02:00,SystemResetWarning,0819.3,5.00,000.00,018.9,018.9,000.0,027.3,021.0,13.7,0000.0,0009.02,0014.59,0008.70
2024-03-26 10:03:00,SystemResetWarning,0819.2,5.00,000.00,018.8,018.7,000.0,027.3,020.8,13.7,0000.0,0009.00,0014.35,0008.69
2024-03-26 10:04:00,SystemResetWarning,0819.2,5.01,000.00,018.8,018.5,000.0,027.3,020.7,13.7,0000.0,0008.98,0014.10,0008.68
2024-03-26 10:05:00,SystemResetWarning,0819.1,5.00,000.00,018.8,018.3,000.0,027.3,020.6,13.7,0000.0,0008.98,0014.01,0008.69
2024-03-26 10:06:00,SystemResetWarning,0819.1,5.00,000.00,018.7,018.2,000.0,027.3,020.5,13.7,0000.0,0008.96,0014.25,0008.69
2024-03-26 10:07:00,SystemResetWarning,0819.2,5.00,000.00,018.7,018.0,000.0,027.3,020.4,13.7,0000.0,0008.99,0014.84,0008.72
2024-03-26 10:08:00,SystemResetWarning,0819.2,5.00,000.00,018.7,017.9,000.0,027.3,020.4,13.7,0000.0,0009.00,0014.74,0008.74
2024-03-26 10:09:00,SystemResetWarning,0819.3,5.00,000.00,018.6,017.8,000.0,027.3,020.3,13.7,0000.0,0008.99,0013.92,0008.73
2024-03-26 10:10:00,SystemResetWarning,0819.2,5.00,000.00,018.6,017.7,000.0,027.3,020.2,13.8,0000.0,0009.04,0013.45,0008.76
2024-03-26 10:11:00,SystemResetWarning,0819.1,5.00,000.00,018.5,017.6,000.0,027.2,020.2,13.8,0000.0,0009.05,0013.47,0008.78
2024-03-26 10:12:00,SystemResetWarning,0819.2,5.00,000.00,018.5,017.5,000.0,027.2,020.1,13.9,0000.0,0009.05,0013.67,0008.79
2024-03-26 10:13:00,SystemResetWarning,0819.1,5.00,000.00,018.4,017.4,000.0,027.2,020.1,13.9,0000.0,0009.04,0013.41,0008.80
2024-03-26 10:14:00,SystemResetWarning,0819.1,5.00,000.00,018.4,017.4,000.0,027.2,020.1,13.9,0000.0,0009.07,0013.29,0008.79
2024-03-26 10:15:00,SystemResetWarning,0819.2,5.00,000.00,018.4,017.5,000.0,027.2,020.2,13.9,0000.0,0009.08,0013.54,0008.79
2024-03-26 10:16:00,SystemResetWarning,0819.2,5.01,000.00,018.5,018.3,000.0,027.3,020.6,13.9,0000.0,0009.10,0013.75,0008.80
2024-03-26 10:17:00,SystemResetWarning,0819.2,5.00,000.00,018.8,019.2,000.0,027.4,021.2,13.7,0000.0,0009.10,0013.57,0008.81
2024-03-26 10:18:00,SystemResetWarning,0819.1,4.99,000.00,019.0,019.4,000.0,027.4,021.3,13.5,0000.0,0009.08,0012.52,0008.80
2024-03-26 10:19:00,SystemResetWarning,0819.1,4.99,000.00,019.0,019.2,000.0,027.4,021.1,13.5,0000.0,0009.07,0012.40,0008.81
2024-03-26 10:20:00,SystemResetWarning,0819.1,5.01,000.00,019.0,018.9,000.0,027.4,020.9,13.5,0000.0,0009.07,0012.20,0008.82
2024-03-26 10:21:00,SystemResetWarning,0819.0,5.00,000.00,018.9,018.7,000.0,027.4,020.8,13.6,0000.0,0009.05,0012.78,0008.81
2024-03-26 10:22:00,SystemResetWarning,0819.1,5.00,000.00,018.9,018.4,000.0,027.4,020.7,13.6,0000.0,0009.06,0012.89,0008.82
2024-03-26 10:23:00,SystemResetWarning,0819.2,5.00,000.00,018.8,018.2,000.0,027.4,020.6,13.6,0000.0,0009.09,0013.58,0008.84
2024-03-26 10:24:00,SystemResetWarning,0819.1,5.02,000.00,018.8,018.0,000.0,027.4,020.5,13.7,0000.0,0009.11,0013.39,0008.85
2024-03-26 10:25:00,SystemResetWarning,0819.1,5.00,000.00,018.7,017.9,000.0,027.3,020.4,13.7,0000.2,0009.13,0013.34,0008.89
2024-03-26 10:26:00,SystemResetWarning,0819.0,4.98,000.00,018.6,017.7,000.0,027.3,020.3,13.8,0003.0,0009.14,0013.32,0008.91
2024-03-26 10:27:00,SystemResetWarning,0819.0,5.00,000.00,018.6,017.6,000.0,027.3,020.2,13.9,0003.1,0009.17,0013.19,0008.93
2024-03-26 10:28:00,SystemResetWarning,0819.0,5.01,000.00,018.5,017.5,000.0,027.3,020.1,13.9,0003.2,0009.19,0013.22,0008.96
2024-03-26 10:29:00,SystemResetWarning,0819.0,5.01,000.00,018.4,017.4,000.0,027.3,020.1,14.0,0002.5,0009.21,0013.33,0008.98
2024-03-26 10:30:00,SystemResetWarning,0819.3,5.00,000.00,018.4,017.3,000.0,027.2,020.1,14.1,0002.3,0009.22,0013.59,0008.99
2024-03-26 10:31:00,SystemResetWarning,0819.0,5.00,000.00,018.4,017.8,000.0,027.3,020.4,14.1,0002.0,0009.23,0013.47,0008.99
2024-03-26 10:32:00,SystemResetWarning,0819.0,5.00,000.00,018.7,018.8,000.0,027.4,021.0,13.9,0001.7,0009.28,0012.68,0009.01
2024-03-26 10:33:00,SystemResetWarning,0819.0,4.99,000.00,018.9,019.5,000.0,027.5,021.4,13.7,0001.9,0009.27,0012.60,0009.01
2024-03-26 10:34:00,SystemResetWarning,0819.0,4.99,000.00,019.0,019.3,000.0,027.4,021.2,13.6,0002.0,0009.25,0011.78,0009.00
2024-03-26 10:35:00,SystemResetWarning,0818.9,5.00,000.00,019.0,019.0,000.0,027.4,021.0,13.6,0002.4,0009.26,0011.86,0009.00
2024-03-26 10:36:00,SystemResetWarning,0818.9,5.00,000.00,018.9,018.7,000.0,027.4,020.8,13.6,0001.8,0009.26,0011.87,0009.00
2024-03-26 10:37:00,SystemResetWarning,0819.0,5.00,000.00,018.9,018.4,000.0,027.4,020.6,13.6,0000.3,0009.26,0012.02,0009.01
2024-03-26 10:38:00,SystemResetWarning,0818.9,5.00,000.00,018.8,018.1,000.0,027.4,020.5,13.7,0000.0,0009.28,0012.11,0009.00
2024-03-26 10:39:00,SystemResetWarning,0819.1,4.99,000.00,018.7,017.9,000.0,027.4,020.3,13.8,-000.2,0009.30,0012.22,0008.99
2024-03-26 10:40:00,SystemResetWarning,0819.1,5.00,000.00,018.7,017.7,000.0,027.4,020.2,13.8,0000.1,0009.29,0012.14,0008.99
2024-03-26 10:41:00,SystemResetWarning,0819.2,5.00,000.00,018.6,017.5,000.0,027.3,020.2,13.9,-000.1,0009.29,0011.94,0008.99
2024-03-26 10:42:00,SystemResetWarning,0819.3,5.00,000.00,018.5,017.4,000.0,027.3,020.1,13.9,0000.2,0009.28,0011.92,0008.98
2024-03-26 10:43:00,SystemResetWarning,0819.3,5.00,000.00,018.4,017.3,000.0,027.3,020.0,14.0,0000.5,0009.26,0012.31,0008.99
2024-03-26 10:44:00,SystemResetWarning,0819.2,5.00,000.00,018.4,017.5,000.0,027.3,020.2,14.1,0000.9,0009.27,0012.50,0009.00
2024-03-26 10:45:00,SystemResetWarning,0819.3,5.01,000.00,018.6,018.4,000.0,027.4,020.7,14.0,0000.8,0009.30,0012.68,0009.02
2024-03-26 10:46:00,SystemResetWarning,0819.0,4.98,000.00,018.9,019.3,000.0,027.5,021.3,13.8,0000.4,0009.33,0012.94,0009.05
2024-03-26 10:47:00,SystemResetWarning,0819.0,4.99,000.00,019.0,019.3,000.0,027.5,021.3,13.6,0000.4,0009.35,0012.95,0009.08
2024-03-26 10:48:00,SystemResetWarning,0819.1,5.00,000.00,019.0,019.0,000.0,027.5,021.0,13.6,0001.3,0009.40,0012.77,0009.13
2024-03-26 10:49:00,SystemResetWarning,0819.3,5.00,000.00,018.9,018.7,000.0,027.4,020.8,13.6,0001.4,0009.41,0012.58,0009.17
2024-03-26 10:50:00,SystemResetWarning,0819.2,5.00,000.00,018.9,018.5,000.0,027.4,020.7,13.7,0001.5,0009.44,0012.56,0009.22
2024-03-26 10:51:00,SystemResetWarning,0819.0,5.00,000.00,018.8,018.2,000.0,027.4,020.5,13.7,0001.3,0009.49,0012.63,0009.26
2024-03-26 10:52:00,SystemResetWarning,0818.9,5.01,000.00,018.8,018.0,000.0,027.4,020.4,13.7,0001.9,0009.53,0012.62,0009.31
2024-03-26 10:53:00,SystemResetWarning,0819.3,5.00,000.00,018.7,017.8,000.0,027.4,020.3,13.8,0002.0,0009.60,0012.86,0009.37
2024-03-26 10:54:00,SystemResetWarning,0819.3,5.00,000.00,018.6,017.7,000.0,027.4,020.2,13.9,0000.9,0009.64,0013.46,0009.41
2024-03-26 10:55:00,SystemResetWarning,0819.4,4.99,000.00,018.6,017.5,000.0,027.3,020.1,13.9,0000.0,0009.68,0013.27,0009.45
2024-03-26 10:56:00,SystemResetWarning,0819.0,5.00,000.00,018.5,017.4,000.0,027.3,020.0,14.0,0000.0,0009.69,0013.36,0009.48
2024-03-26 10:57:00,SystemResetWarning,0818.9,5.00,000.00,018.4,017.3,000.0,027.3,020.0,14.1,0000.0,0009.71,0013.05,0009.51
2024-03-26 10:58:00,SystemResetWarning,0819.1,5.01,000.00,018.4,017.6,000.0,027.4,020.3,14.1,0000.0,0009.73,0013.05,0009.53
2024-03-26 10:59:00,SystemResetWarning,0819.3,4.99,000.00,018.6,018.6,000.0,027.4,020.8,13.9,0000.2,0009.74,0013.05,0009.54
